SB KEPS @ AMSAT $ORB25341.1 2Line Orbital Elements 25341.AMSAT QST de W1STR AMSAT Orbital Elements for Amateur Satellites in TLE Format From Orbital Analysis Office New England Sci-Tech STEM Education Center Natick MA December 07, 2025 To all radio amateurs These element sets describe the orbits of various satellites in use by the amateur radio community. For details see: www.amsat.org/keplerian-elements-formats/ A daily update of element sets is available at: www.amsat.org/tle/daily-bulletin.txt or without bulletin text: www.amsat.org/tle/dailytle.txt AO-07 1 07530U 74089B 25340.60196855 -.00000039 00000-0 43645-4 0 9996 2 07530 101.9965 346.8051 0012331 138.1941 334.0167 12.53694047336380 UO-11 1 14781U 84021B 25340.61559515 .00002827 00000-0 29791-3 0 9997 2 14781 97.7804 303.7394 0009234 98.8678 261.3586 14.90109882228444 AO-27 1 22825U 93061C 25340.63526969 .00000297 00000-0 13040-3 0 9997 2 22825 98.7155 42.8878 0007508 309.9250 50.1272 14.30873402679462 FO-29 1 24278U 96046B 25340.63624757 .00000042 00000-0 80948-4 0 9991 2 24278 98.5467 210.5907 0348998 235.8434 120.9157 13.53262366447128 GO-32 1 25397U 98043D 25340.38466767 .00000210 00000-0 11104-3 0 9994 2 25397 98.9914 323.4503 0002189 67.7591 292.3819 14.24374406423887 ISS 1 25544U 98067A 25340.54293258 .00014832 00000-0 27333-3 0 9991 2 25544 51.6299 173.1600 0003550 211.9909 148.0864 15.49366390541890 NO-44 1 26931U 01043C 25340.51951135 .00000406 00000-0 18246-3 0 9997 2 26931 67.0519 22.5648 0007399 270.2642 89.7612 14.31849643262869 SO-50 1 27607U 02058C 25340.53140433 .00003517 00000-0 43711-3 0 9999 2 27607 64.5545 4.7869 0071917 297.7500 61.6324 14.82349754235898 CO-55 1 27844U 03031E 25340.54800677 .00000712 00000-0 32784-3 0 9990 2 27844 98.6763 346.5309 0010102 30.6763 329.5004 14.24171263164257 CO-57 1 27848U 03031J 25339.94919541 .00000556 00000-0 26365-3 0 9991 2 27848 98.6794 345.8073 0010324 49.0774 311.1296 14.23479496163883 RS-22 1 27939U 03042A 25340.53147461 .00002827 00000-0 44852-3 0 9999 2 27939 98.3366 154.5669 0011783 154.4931 283.2707 14.72943932187188 CO-58 1 28895U 05043F 25340.66326506 .00003703 00000-0 59892-3 0 9991 2 28895 98.2723 127.6387 0015398 96.1934 264.1027 14.71862798 73428 CO-65 1 32785U 08021C 25340.59642370 .00010792 00000-0 72526-3 0 9990 2 32785 97.8086 313.5978 0008531 335.4419 24.6401 15.06930137956166 CO-66 1 32791U 08021J 25340.40800480 .00029184 00000-0 11714-2 0 9991 2 32791 97.7436 325.3365 0000910 278.6038 81.5095 15.24931127957836 RS-30 1 32953U 08025A 25340.59421737 .00000019 00000-0 65980-4 0 9991 2 32953 82.5013 115.2449 0019159 14.4315 345.7308 12.43171790795761 SRMSAT 1 37841U 11058D 25340.66214329 .00000549 00000-0 15415-3 0 9992 2 37841 19.9699 144.7353 0011714 245.9297 198.7661 14.11508311730583 ZACUBE-1 1 39417U 13066B 25340.11676378 .00008269 00000-0 67519-3 0 9999 2 39417 97.8073 296.6509 0041584 168.1343 192.0870 14.98988800651784 Delfi-N3xt 1 39428U 13066N 25340.57022442 .00012520 00000-0 11737-2 0 9993 2 39428 97.8342 256.5081 0080667 125.4633 235.4149 14.91680580645879 GOMX-1 1 39430U 13066Q 25340.56521174 .00004347 00000-0 66638-3 0 9990 2 39430 97.6593 188.0769 0130127 336.4873 23.0417 14.68539140641635 LO-74 1 39440U 13066AA 25340.56882724 .00009191 00000-0 88534-3 0 9993 2 39440 97.8703 284.2482 0058652 306.7348 52.8492 14.91866897648257 AO-73 1 39444U 13066AE 25340.60821742 .00013230 00000-0 89950-3 0 9997 2 39444 97.8053 303.8124 0040275 135.6963 224.7499 15.05801222650644 DTUSAT-2 1 40030U 14033W 25340.64603668 .00014208 00000-0 83966-3 0 9991 2 40030 98.0749 321.7695 0008676 159.5153 200.6425 15.11580266623561 EO-80 1 40032U 14033Y 25340.59081820 .00014101 00000-0 83144-3 0 9997 2 40032 98.0632 321.1136 0009718 106.4006 253.8291 15.11655211623535 LILACSAT-2 1 40908U 15049K 25340.64645812 .00023523 00000-0 50895-3 0 9995 2 40908 97.4912 5.8420 0006640 222.1795 137.8943 15.44455420565968 IO-86 1 40931U 15052B 25151.18580175 .00001241 00000-0 78118-4 0 9996 2 40931 6.0006 24.0987 0012733 338.8432 21.1169 14.78805930523159 Horyu-4 1 41340U 16012D 25340.37349146 .00075721 00000-0 13012-2 0 9994 2 41340 30.9953 353.6635 0006694 172.2657 187.8097 15.49767084540560 Lapan A3 1 41603U 16040E 25340.61844113 .00006444 00000-0 21408-3 0 9993 2 41603 97.1422 338.3976 0010414 356.8805 3.2371 15.31478358525323 CAS-2T 1 41847U 16066G 25340.45677935 .00001979 00000-0 28791-3 0 9999 2 41847 98.4044 53.2580 0343748 354.2095 5.5165 14.44109183476975 TechnoSat 1 42829U 17042E 25340.60504341 .00007493 00000-0 55395-3 0 9999 2 42829 97.4026 141.0758 0018711 33.0292 327.2098 15.03333064457755 AO-91 1 43017U 17073E 25340.60947084 .00017055 00000-0 80888-3 0 9998 2 43017 97.4946 206.9451 0159872 271.6996 86.5927 15.08663842436312 S-Net D 1 43186U 18014G 25340.60865565 .00011404 00000-0 62670-3 0 9995 2 43186 97.5491 241.7462 0008008 337.3244 22.7633 15.14237069429597 S-Net B 1 43187U 18014H 25340.61661500 .00011550 00000-0 63501-3 0 9996 2 43187 97.5496 241.7341 0008523 330.9765 29.0991 15.14211975429593 S-Net A 1 43188U 18014J 25340.60838952 .00011322 00000-0 62209-3 0 9994 2 43188 97.5506 241.9012 0008424 332.2585 27.8196 15.14243290429596 S-Net C 1 43189U 18014K 25340.61956043 .00011535 00000-0 63417-3 0 9996 2 43189 97.5519 241.9568 0009690 322.6342 37.4215 15.14206976428146 Ten-Koh 1 43677U 18084G 25340.44856177 .00006071 00000-0 47074-3 0 9993 2 43677 98.0732 159.8138 0009402 40.8314 319.3612 15.01755740387220 PO-101 1 43678U 18084H 25340.57927737 .00004470 00000-0 37028-3 0 9998 2 43678 98.1022 163.7948 0007490 61.1809 299.0164 14.99386829387340 QO-100 1 43700U 18090A 25340.57452398 .00000151 00000-0 00000-0 0 9996 2 43700 0.0142 22.0890 0001519 245.1188 41.0527 1.00273933 25744 MinXSS-2 1 43758U 18099A 25340.49421205 .00043150 00000-0 13045-2 0 9993 2 43758 97.4808 47.7764 0008862 236.0161 124.0240 15.34055444384466 AO-95 1 43770U 18099N 25340.08587382 .00018064 00000-0 80050-3 0 9998 2 43770 97.4685 36.4188 0008637 312.9813 47.0698 15.21643982383800 SNUSat 2 1 43782U 18099AA 25339.67223280 .00015870 00000-0 78010-3 0 9993 2 43782 97.4365 31.2009 0009666 249.8338 110.1857 15.18078694383634 SnugLite 1 43784U 18099AC 25340.60066745 .00020133 00000-0 88170-3 0 9997 2 43784 97.4171 32.1384 0001840 227.9164 132.1916 15.22054692383971 ITASat 1 1 43786U 18099AE 25340.62547379 .00013431 00000-0 70214-3 0 9991 2 43786 97.4330 31.0650 0012261 307.2166 52.7947 15.15930051383703 EAGLET 1 1 43790U 18099AJ 25340.61256387 .00008586 00000-0 51669-3 0 9999 2 43790 97.4525 30.3078 0010071 294.2207 65.7970 15.11024137383231 ESEO 1 43792U 18099AL 25340.62518528 .00002879 00000-0 21556-3 0 9991 2 43792 97.4235 21.0607 0010485 271.0700 88.9325 15.03442857382869 JO-97 1 43803U 18099AX 25340.58902468 .00027465 00000-0 10501-2 0 9994 2 43803 97.4424 38.4256 0005634 226.6373 133.4397 15.26551014384178 Suomi 100 1 43804U 18099AY 25340.61172573 .00021616 00000-0 91723-3 0 9993 2 43804 97.4489 37.1205 0009932 235.4543 124.5756 15.23072765384057 ISAT 1 43879U 18111D 25340.57004823 .00060265 00000-0 14459-2 0 9990 2 43879 97.5912 260.0236 0003714 295.0354 65.0506 15.41166343381297 UWE-4 1 43880U 18111E 25340.24140304 .00040884 00000-0 12411-2 0 9992 2 43880 97.5861 256.5876 0008037 308.2391 51.8127 15.33944000381087 Sparrow 1 43881U 18111F 25340.62840429 .00067384 00000-0 15006-2 0 9997 2 43881 97.6097 263.8021 0004279 355.9769 4.1443 15.43370383381423 Prox-1 1 44339U 19036A 25340.59334022 .00020600 00000-0 23269-2 0 9996 2 44339 23.9972 315.4707 0006273 330.4708 29.5435 14.84945457344759 Taurus 1 1 44530U 19059C 25340.57322940 .00015062 00000-0 25722-2 0 9990 2 44530 98.6229 129.0875 0009083 193.1428 166.9540 14.68995898330334 Duchifat 3 1 44854U 19089C 25337.20011490 .01105376 61298-3 19590-2 0 9997 2 44854 36.9264 289.0060 0011659 216.1192 143.8795 16.00863037330610 TO-108 1 44881U 19093C 25340.64065643 .00002088 00000-0 24425-3 0 9993 2 44881 97.7767 52.4087 0013746 6.4359 353.7030 14.86082643322813 FloripaSat 1 1 44885U 19093G 25340.51161590 .00012166 00000-0 95216-3 0 9995 2 44885 97.8056 68.6757 0011055 357.4023 2.7142 15.01140526323718 RS-44 1 44909U 19096E 25340.60320393 .00000015 00000-0 22413-4 0 9993 2 44909 82.5203 107.6860 0216835 234.4802 123.5906 12.79745818277716 SALSAT 1 46495U 20068K 25340.43438351 .00014698 00000-0 57075-3 0 9994 2 46495 97.8778 327.3672 0008643 256.1755 103.8520 15.26163129285929 CSS (TIANHE-1) 1 48274U 21035A 25340.62885415 .00028802 00000-0 36467-3 0 9998 2 48274 41.4683 53.7961 0009534 342.8614 17.1901 15.58799060263070 TUBIN 1 48900U 21059X 25340.57159950 .00829878 36463-3 11172-2 0 9994 2 48900 97.6689 168.0571 0003729 277.2619 82.8238 16.06560612248335 CUTE 1 49263U 21088D 25340.61053305 .00039535 00000-0 52559-3 0 9994 2 49263 97.4361 63.1878 0004480 298.4913 61.5891 15.58086538232344 TeikyoSat 4 1 49396U 21102B 25340.63261774 .00004407 00000-0 28534-3 0 9997 2 49396 97.3903 12.4617 0010919 231.0261 128.9995 15.08602898223681 Z-Sat 1 49399U 21102E 25340.64026416 .00008349 00000-0 43213-3 0 9993 2 49399 97.3585 16.7673 0016802 193.4130 166.6659 15.16348724224245 KOSEN 1 1 49402U 21102H 25340.59503755 .00014599 00000-0 61278-3 0 9993 2 49402 97.3472 21.6139 0015117 161.7101 198.4683 15.23462519224664 HO-113 1 50466U 21131B 25340.54017008 .00001236 00000-0 39740-3 0 9996 2 50466 98.5062 68.9931 0003380 329.1140 30.9850 14.41099824207368 SNUGLITE 2 1 52899U 22065F 25340.65026294 .00002741 00000-0 53418-3 0 9994 2 52899 98.1924 121.2177 0006387 267.7043 92.3428 14.63809464182826 UmKA 1 (RS40S) 1 57172U 23091G 25340.61226502 .00011630 00000-0 57247-3 0 9994 2 57172 97.5348 35.1040 0015081 72.8297 287.4586 15.18046966134760 CubeBel-2 (EU11S) 1 57175U 23091K 25340.61445121 .00022175 00000-0 92055-3 0 9999 2 57175 97.5345 37.5387 0012363 75.8029 284.4580 15.23785529134926 RS-38S 1 57189U 23091Z 25340.62057147 .00026270 00000-0 92973-3 0 9991 2 57189 97.5370 41.9435 0009190 43.2579 316.9381 15.29085926135195 SONATE-2 1 59112U 24043Q 25340.62895919 .00044028 00000-0 94332-3 0 9996 2 59112 97.5332 116.6544 0008952 183.7748 176.3434 15.44595646 98035 MO-122 1 60209U 24125G 25340.57468239 .00048347 00000-0 99489-3 0 9997 2 60209 97.2522 190.9441 0013758 201.6815 158.3853 15.45701654 79659 GRBBeta 1 60237U 24128C 25340.63766877 .00007941 00000-0 55671-3 0 9997 2 60237 61.9884 170.9015 0056543 95.4779 265.2767 15.04660688 77275 Curium One 1 60242U 24128H 25340.63230863 .00015005 00000-0 92876-3 0 9992 2 60242 61.9775 165.9406 0056265 92.4101 268.3436 15.08716278 77363 ROBUSTA-3A 1 60243U 24128J 25340.63298467 .00011458 00000-0 72539-3 0 9999 2 60243 61.9850 167.4438 0056346 89.8781 270.8769 15.08083611 77347 CatSat 1 60246U 24125J 25340.56772765 .00056347 00000-0 13823-2 0 9995 2 60246 97.2317 188.0205 0033962 166.5503 193.6656 15.39908811 77579 HYPERVIEW-1G (RS66S) 1 61772U 24199AP 25340.59974847 .00063301 00000-0 12397-2 0 9992 2 61772 97.3211 209.9600 0008089 265.8398 94.1928 15.47145404104665 AO-123 1 61781U 24199AY 25340.59761276 .00017023 00000-0 55567-3 0 9999 2 61781 97.3251 206.1152 0013010 280.8133 79.1644 15.31755042104402 ZIMSAT 2 1 61783U 24199BA 25340.61907617 .00266025 00000-0 21314-2 0 9995 2 61783 97.3096 213.2896 0002874 236.1777 123.9212 15.70235261108041 HADES-R (SO-124) 1 62690U 25009CK 25340.08550678 .00211110 00000-0 29348-2 0 9996 2 62690 97.3893 62.4623 0001594 230.2126 129.8988 15.56255544 49743 HYDRA-T 1 62692U 25009CM 25340.19957169 .00223626 00000-0 29253-2 0 9996 2 62692 97.3888 62.7665 0001548 241.5876 118.5224 15.57856788 49773 JINJUSat 1B 1 63210U 25052A 25340.16496074 .00024256 00000-0 93304-3 0 9998 2 63210 97.4208 232.3623 0005889 61.8192 298.3640 15.26375375 40585 NUSHSAT 1 1 63211U 25052B 25340.62329880 .00031173 00000-0 11606-2 0 9990 2 63211 97.4187 232.9309 0005973 62.5671 297.6175 15.27405226 40667 TEVEL2-4 1 63213U 25052D 25340.62151249 .00029929 00000-0 11367-2 0 9994 2 63213 97.4108 232.4940 0005296 74.9279 285.2546 15.26757838 40659 TEVEL2-5 1 63214U 25052E 25340.62667781 .00029138 00000-0 11093-2 0 9996 2 63214 97.4102 232.4874 0005189 75.1365 285.0448 15.26685082 40650 TEVEL2-6 1 63215U 25052F 25340.04387850 .00026903 00000-0 10272-2 0 9994 2 63215 97.4111 231.8974 0005352 76.8600 283.3235 15.26604056 40564 TEVEL2-1 1 63217U 25052H 25340.47850298 .00028672 00000-0 11041-2 0 9994 2 63217 97.4082 232.1452 0005439 84.0910 276.0949 15.26307039 40628 TEVEL2-3 1 63218U 25052J 25340.60891033 .00028901 00000-0 11119-2 0 9993 2 63218 97.4085 232.2795 0005374 84.4284 275.7567 15.26336246 40645 TEVEL2-2 1 63219U 25052K 25340.61039701 .00028347 00000-0 10913-2 0 9996 2 63219 97.4081 232.2762 0005399 84.7410 275.4445 15.26315885 40645 TEVEL2-9 1 63237U 25052AD 25340.63307407 .00026971 00000-0 10849-2 0 9998 2 63237 97.4146 232.0142 0009202 98.1982 262.0300 15.24836719 40618 TEVEL2-7 1 63238U 25052AE 25340.64639138 .00027815 00000-0 11234-2 0 9996 2 63238 97.4149 232.0021 0009290 98.6358 261.5932 15.24692161 40613 TEVEL2-8 1 63239U 25052AF 25340.65192583 .00027107 00000-0 10959-2 0 9993 2 63239 97.4145 231.9929 0009241 99.3572 260.8711 15.24663872 40611 HYDRA-W 1 63490U 25052BL 25339.68759526 .00102343 00000-0 25268-2 0 9994 2 63490 97.4068 233.3733 0011534 89.2543 271.0024 15.40053942 40639 HADES-ICM (SO-125) 1 63492U 25052BN 25339.67379024 .00092213 00000-0 24179-2 0 9990 2 63492 97.4080 233.1096 0011550 92.7552 267.5015 15.38250928 40610 Dragonfly 1 65729U 98067XH 25339.92998556 .00170954 00000-0 14111-2 0 9990 2 65729 51.6246 170.5624 0006512 233.7397 126.2998 15.69233632 12097 RSP-03 1 65732U 98067XL 25340.55552256 .00153185 00000-0 14056-2 0 9993 2 65732 51.6248 167.9959 0006310 211.4337 148.6282 15.66703439 12196 GHS-01 1 65733U 98067XM 25340.59214212 .00252273 00000-0 18514-2 0 9996 2 65733 51.6264 166.7395 0006907 238.9064 121.1257 15.71789944 12211 BOTAN 1 65942U 98067XP 25339.80843050 .00125200 00000-0 14405-2 0 9992 2 65942 51.6268 174.2609 0004096 186.0920 174.0025 15.61079270 8780 SPIRONE 1 66657U 25274H 25340.50895770 .00004924 00000-0 48586-3 0 9998 2 66657 97.7389 267.8223 0010975 300.0150 59.9980 14.92396474 1477 K-HERO 1 66660U 25274L 25340.50559669 .00004682 00000-0 45617-3 0 9999 2 66660 97.7397 267.8271 0012933 304.6853 55.3147 14.92904179 1471 CEVROSAT1 1 98526U 25248E 25313.13142326 .00000000 00000-0 19360-3 0 02 2 98526 45.4084 218.4764 0001315 254.8982 242.1062 15.17981583 02 /EX